ARIANE 5 R/B, 44802

Orbit data source: Space-Track

ARIANE 5 R/B, 44802 is space debris in HEO originally from a launch on Tue, 26 Nov 2019 UTC launched from the French Guiana (FRGUI). Debris objects in space refer to the collection of defunct objects orbiting the Earth. Examples of debris include non-operational satellites, rocket bodies, and fragments generated from explosions, collisions, or faulty payload assembly.

Loading next visibility...
Identifier
44802, 2019-080C
Orbit
HEO
Country
Flag of FRFR
Related business
Manufacturer
ArianeGroup
Mission
Spacecraft
Bus & Motor
ESC-A, Unknown motor
Mass
~5,000 kg wet, ~5,000 kg dry
Launch date (UTC)
2019-11-26 (6 years ago)
Launch vehicle
Unknown
Launch site
French Guiana (FRGUI)
Object type
Payload
Rocket body
Debris
Shape & HBR
Cyl + 1 Nozzle, 3.5 m
Radar Cross Section
41.627 m², Large (>1 m²)

Expand to show TLE details & history
Last TLE update: 9 hours ago

TLE from 9 hours ago
0 ARIANE 5 R/B
1 44802U 19080C   26130.15359698  .00006259  00000-0  10817-2 0  9995
2 44802   5.2714 201.3839 6975044 176.9882 192.2314  2.68470949 58319
Epoch: 2026-05-10T03:41Z
TLE epoch observation values (Epoch: 2026-05-10T03:41:10.779Z)
Latitude
0.00001°
Longitude
-81.82377°
Altitude
30,628.396 km
Speed
1.821 km/s
True Right ascension
13h 25m 43s
True Declination
0° 00' 00"
Sunlit
Object was in daylight at epoch
Visualization orbit readout
Latitude
Unknown
Longitude
Unknown
Altitude
Unknown
Speed
Unknown
Apparent Right ascension
Unknown
Apparent Declination
Unknown
Sunlit
N/A
Visualization observer readout
Local Sidereal Time
20:43:38
Azimuth
Unknown
Elevation
Unknown
Doppler factor
Unknown
Orbital elements
Apogee altitude
30,751.624 km
Perigee altitude
238.393 km
Semi-major axis
21,873.146 km
Eccentricity
0.6975
Inclination
5.2714°
RAAN
201.3839°
Arg. of periapsis
176.9882°
True anomaly
183.04833°
Mean anomaly
192.2314°
Eccentric anomaly
187.21334°
Mean motion
0.67093 °/min
Orbital period
536.57 mins
BSTAR
0.0010817
Loading maneuver chart data...
Computing Atmospheric mass density...
Loading historical data...
Loading historical data...
Loading historical data...
Loading historical data...
Loading historical data...
Loading historical data...
Loading historical data...
Other satellites on launch #80 in the year 2019 (2019-11-26 UTC)

Documentation

Showing up to 5 results
|